FENGYUN 1C DEB, 31723

Orbit data source: Space-Track

FENGYUN 1C DEB, 31723 is space debris in SSO originally from a launch on Mon, 10 May 1999 UTC launched from the Taiyaun Space Center, China (TSC). Fengyun 1C debris stems from the Chinese weather satellite Fengyun-1C, which was intentionally destroyed by a Chinese anti-satellite missile in 2007. This event dramatically increased the amount of space debris, with thousands of trackable fragments posing hazards to satellites and human spaceflight. The Fengyun 1C debris cloud has become a focal point in discussions about space sustainability and the need for international regulations to prevent the creation of new debris.

Not visible in the next 10 days
Identifier
31723, 1999-025CDW
Orbit
SSO
Country
Flag of CNCN / PRC
Related business
Manufacturer
Unknown
Mission
Spacecraft
Bus & Motor
Unknown
Mass
Unknown
Launch date (UTC)
1999-05-10 (27 years ago)
Launch vehicle
Unknown
Launch site
Taiyaun Space Center, China (TSC)
Object type
Payload
Rocket body
Debris
Shape & HBR
Unknown shape, 1.1 m
Radar Cross Section
Small (<0.1 m²)

Expand to show TLE details & history
Last TLE update: 9 months ago

TLE from 9 months ago
0 FENGYUN 1C DEB
1 31723U 99025CDW 25301.83585076 -.01129922  00000-0 -37530+0 0  9999
2 31723  97.7912  44.0350 0096490  43.0254 317.8428 14.38624879628792
Epoch: 2025-10-28T20:03Z
TLE epoch observation values (Epoch: 2025-10-28T20:03:37.505Z)
Latitude
-0.00007°
Longitude
65.7111°
Altitude
715.226 km
Speed
7.525 km/s
True Right ascension
02h 56m 08s
True Declination
0° 00' 00"
Sunlit
Object was in full shadow at epoch
Visualization orbit readout
Latitude
Unknown
Longitude
Unknown
Altitude
Unknown
Speed
Unknown
Apparent Right ascension
Unknown
Apparent Declination
Unknown
Sunlit
N/A
Visualization observer readout
Local Sidereal Time
02:13:39
Azimuth
Unknown
Elevation
Unknown
Doppler factor
Unknown
Orbital elements
Apogee altitude
829.014 km
Perigee altitude
691.26 km
Semi-major axis
7,138.274 km
Eccentricity
0.00965
Inclination
97.7912°
RAAN
44.035°
Arg. of periapsis
43.0254°
True anomaly
317.09402°
Mean anomaly
317.8428°
Eccentric anomaly
317.46908°
Mean motion
3.59876 °/min
Orbital period
100.03 mins
BSTAR
-0.3753
Loading maneuver chart data...
Computing Atmospheric mass density...

Documentation

Showing up to 5 results
|